Time,TemperatureF,DewpointF,PressureIn,WindDirection,WindDirectionDegrees,WindSpeedMPH,WindSpeedGustMPH,Humidity,HourlyPrecipIn,Conditions,Clouds,dailyrainin,SoftwareType,DateUTC
2013-02-23 00:00:00,31.8,19.1,29.74,East,94,0.0,0.0,59,0.00,,---,0.00,VWS V14.01,2013-02-23 05:00:00,
2013-02-23 00:05:00,31.8,19.1,29.74,East,94,0.0,0.0,59,0.00,,---,0.00,VWS V14.01,2013-02-23 05:05:00,
2013-02-23 00:10:00,31.8,19.1,29.74,East,94,0.0,0.0,59,0.00,,---,0.00,VWS V14.01,2013-02-23 05:10:00,
2013-02-23 00:15:00,31.6,19.0,29.71,East,94,0.0,0.0,59,0.00,,---,0.00,VWS V14.01,2013-02-23 05:15:00,
2013-02-23 00:20:00,31.6,18.6,29.71,East,94,0.0,0.0,58,0.00,,---,0.00,VWS V14.01,2013-02-23 05:20:00,
2013-02-23 00:25:00,31.5,18.4,29.71,East,93,0.0,0.0,58,0.00,,---,0.00,VWS V14.01,2013-02-23 05:25:00,
2013-02-23 00:30:00,31.5,18.8,29.74,East,94,0.0,0.0,59,0.00,,---,0.00,VWS V14.01,2013-02-23 05:30:00,
2013-02-23 00:35:00,31.5,19.2,29.74,East,94,0.0,0.0,60,0.00,,---,0.00,VWS V14.01,2013-02-23 05:35:00,
2013-02-23 00:40:00,31.5,19.2,29.74,East,94,0.0,0.0,60,0.00,,---,0.00,VWS V14.01,2013-02-23 05:40:00,
2013-02-23 00:45:00,31.5,19.2,29.74,East,94,0.0,0.0,60,0.00,,---,0.00,VWS V14.01,2013-02-23 05:45:00,
2013-02-23 00:50:00,31.5,19.2,29.74,East,93,0.0,0.0,60,0.00,,---,0.00,VWS V14.01,2013-02-23 05:50:00,
2013-02-23 00:55:00,31.6,19.8,29.71,East,84,0.0,0.0,61,0.00,,---,0.00,VWS V14.01,2013-02-23 05:55:00,
2013-02-23 01:00:00,31.6,19.8,29.71,East,85,0.0,0.0,61,0.00,,---,0.00,VWS V14.01,2013-02-23 06:00:00,
2013-02-23 01:05:00,31.6,19.8,29.71,East,84,0.0,0.0,61,0.00,,---,0.00,VWS V14.01,2013-02-23 06:05:00,
2013-02-23 01:10:00,31.6,19.8,29.71,East,85,0.0,0.0,61,0.00,,---,0.00,VWS V14.01,2013-02-23 06:10:00,
2013-02-23 01:15:00,31.8,19.5,29.71,East,84,0.0,0.0,60,0.00,,---,0.00,VWS V14.01,2013-02-23 06:15:00,
2013-02-23 01:20:00,31.6,19.4,29.71,East,84,0.0,0.0,60,0.00,,---,0.00,VWS V14.01,2013-02-23 06:20:00,
2013-02-23 01:25:00,31.8,19.5,29.71,East,84,0.0,0.0,60,0.00,,---,0.00,VWS V14.01,2013-02-23 06:25:00,
2013-02-23 01:30:00,31.8,19.5,29.71,East,84,0.0,0.0,60,0.00,,---,0.00,VWS V14.01,2013-02-23 06:30:00,
2013-02-23 01:35:00,31.8,19.5,29.71,East,85,0.0,0.0,60,0.00,,---,0.00,VWS V14.01,2013-02-23 06:35:00,
2013-02-23 01:40:00,31.8,19.9,29.71,East,79,0.0,0.0,61,0.00,,---,0.00,VWS V14.01,2013-02-23 06:40:00,
2013-02-23 01:45:00,31.8,19.9,29.71,East,98,0.0,0.0,61,0.00,,---,0.00,VWS V14.01,2013-02-23 06:45:00,
2013-02-23 01:50:00,31.8,19.5,29.71,East,96,0.0,0.0,60,0.00,,---,0.00,VWS V14.01,2013-02-23 06:50:00,
2013-02-23 01:55:00,31.8,19.5,29.71,East,97,0.0,0.0,60,0.00,,---,0.00,VWS V14.01,2013-02-23 06:55:00,
2013-02-23 02:00:00,31.8,19.5,29.71,East,95,0.0,0.0,60,0.00,,---,0.00,VWS V14.01,2013-02-23 07:00:00,
2013-02-23 02:05:00,31.8,19.9,29.71,East,90,0.0,0.0,61,0.00,,---,0.00,VWS V14.01,2013-02-23 07:05:00,
2013-02-23 02:10:00,32.0,20.1,29.71,East,91,0.0,0.0,61,0.00,,---,0.00,VWS V14.01,2013-02-23 07:10:00,
2013-02-23 02:15:00,32.0,20.1,29.71,ESE,103,0.0,0.0,61,0.00,,---,0.00,VWS V14.01,2013-02-23 07:15:00,
2013-02-23 02:20:00,32.0,20.1,29.71,ESE,103,0.0,0.0,61,0.00,,---,0.00,VWS V14.01,2013-02-23 07:20:00,
2013-02-23 02:25:00,32.0,20.1,29.71,ESE,103,0.0,0.0,61,0.00,,---,0.00,VWS V14.01,2013-02-23 07:25:00,
2013-02-23 02:30:00,32.2,19.9,29.71,ESE,103,0.0,0.0,60,0.00,,---,0.00,VWS V14.01,2013-02-23 07:30:00,
2013-02-23 02:35:00,32.2,19.9,29.71,ESE,103,0.0,0.0,60,0.00,,---,0.00,VWS V14.01,2013-02-23 07:35:00,
2013-02-23 02:40:00,32.2,19.9,29.71,ESE,103,0.0,0.0,60,0.00,,---,0.00,VWS V14.01,2013-02-23 07:40:00,
2013-02-23 02:45:00,32.2,19.9,29.68,East,95,0.0,8.1,60,0.00,,---,0.00,VWS V14.01,2013-02-23 07:45:00,
2013-02-23 02:50:00,32.2,19.9,29.68,East,95,0.0,0.0,60,0.00,,---,0.00,VWS V14.01,2013-02-23 07:50:00,
2013-02-23 02:55:00,32.2,20.3,29.68,East,81,4.5,4.5,61,0.00,,---,0.00,VWS V14.01,2013-02-23 07:55:00,
2013-02-23 03:00:00,32.0,20.1,29.68,East,81,0.0,0.0,61,0.00,,---,0.00,VWS V14.01,2013-02-23 08:00:00,
2013-02-23 03:05:00,32.0,20.1,29.68,ENE,75,0.0,0.0,61,0.00,,---,0.00,VWS V14.01,2013-02-23 08:05:00,
2013-02-23 03:10:00,32.0,20.1,29.68,ENE,75,0.0,0.0,61,0.00,,---,0.00,VWS V14.01,2013-02-23 08:10:00,
2013-02-23 03:15:00,32.0,20.1,29.68,ENE,75,0.0,0.0,61,0.00,,---,0.00,VWS V14.01,2013-02-23 08:15:00,
2013-02-23 03:20:00,32.0,20.1,29.68,ENE,74,0.0,0.0,61,0.00,,---,0.00,VWS V14.01,2013-02-23 08:20:00,
2013-02-23 03:25:00,32.0,20.1,29.68,ENE,74,0.0,0.0,61,0.00,,---,0.00,VWS V14.01,2013-02-23 08:25:00,
2013-02-23 03:30:00,32.2,20.6,29.68,ENE,74,0.0,0.0,62,0.00,,---,0.00,VWS V14.01,2013-02-23 08:30:00,
2013-02-23 03:35:00,32.2,20.6,29.68,SSE,154,0.0,0.0,62,0.00,,---,0.00,VWS V14.01,2013-02-23 08:35:00,
2013-02-23 03:40:00,32.2,20.6,29.68,SSE,154,0.0,0.0,62,0.00,,---,0.00,VWS V14.01,2013-02-23 08:40:00,
2013-02-23 03:45:00,32.2,20.6,29.65,SSE,148,0.0,0.0,62,0.00,,---,0.00,VWS V14.01,2013-02-23 08:45:00,
2013-02-23 03:50:00,32.2,20.6,29.65,SE,146,0.0,0.0,62,0.00,,---,0.00,VWS V14.01,2013-02-23 08:50:00,
2013-02-23 03:55:00,32.2,20.6,29.65,East,79,0.0,0.0,62,0.00,,---,0.00,VWS V14.01,2013-02-23 08:55:00,
2013-02-23 04:00:00,32.0,20.5,29.65,East,88,0.0,0.0,62,0.00,,---,0.00,VWS V14.01,2013-02-23 09:00:00,
2013-02-23 04:05:00,32.0,20.9,29.65,East,89,0.0,0.0,63,0.00,,---,0.00,VWS V14.01,2013-02-23 09:05:00,
2013-02-23 04:10:00,32.0,20.9,29.65,East,89,0.0,0.0,63,0.00,,---,0.00,VWS V14.01,2013-02-23 09:10:00,
2013-02-23 04:15:00,32.0,20.9,29.65,East,101,0.0,0.0,63,0.00,,---,0.00,VWS V14.01,2013-02-23 09:15:00,
2013-02-23 04:20:00,32.0,20.9,29.65,ESE,107,0.0,0.0,63,0.00,,---,0.00,VWS V14.01,2013-02-23 09:20:00,
2013-02-23 04:25:00,32.2,21.0,29.65,ESE,105,0.0,0.0,63,0.00,,---,0.00,VWS V14.01,2013-02-23 09:25:00,
2013-02-23 04:30:00,32.2,21.0,29.65,ESE,105,0.0,0.0,63,0.00,,---,0.00,VWS V14.01,2013-02-23 09:30:00,
2013-02-23 04:35:00,32.2,21.0,29.65,ESE,105,0.0,0.0,63,0.00,,---,0.00,VWS V14.01,2013-02-23 09:35:00,
2013-02-23 04:40:00,32.2,21.0,29.65,ESE,112,0.0,0.0,63,0.00,,---,0.00,VWS V14.01,2013-02-23 09:40:00,
2013-02-23 04:45:00,32.2,21.4,29.65,ESE,112,0.0,0.0,64,0.00,,---,0.00,VWS V14.01,2013-02-23 09:45:00,
2013-02-23 04:50:00,32.4,21.6,29.65,ESE,112,0.0,0.0,64,0.00,,---,0.00,VWS V14.01,2013-02-23 09:50:00,
2013-02-23 04:55:00,32.4,21.6,29.65,East,82,0.0,0.0,64,0.00,,---,0.00,VWS V14.01,2013-02-23 09:55:00,
2013-02-23 05:00:00,32.4,21.6,29.65,ESE,106,0.0,0.0,64,0.00,,---,0.00,VWS V14.01,2013-02-23 10:00:00,
2013-02-23 05:05:00,32.4,21.6,29.65,ESE,106,0.0,0.0,64,0.00,,---,0.00,VWS V14.01,2013-02-23 10:05:00,
2013-02-23 05:10:00,32.4,21.6,29.65,ESE,105,0.0,0.0,64,0.00,,---,0.00,VWS V14.01,2013-02-23 10:10:00,
2013-02-23 05:15:00,32.4,21.6,29.65,ESE,105,0.0,0.0,64,0.00,,---,0.00,VWS V14.01,2013-02-23 10:15:00,
2013-02-23 05:20:00,32.4,21.6,29.65,ESE,115,0.0,0.0,64,0.00,,---,0.00,VWS V14.01,2013-02-23 10:20:00,
2013-02-23 05:25:00,32.4,21.9,29.65,ESE,107,0.0,0.0,65,0.00,,---,0.00,VWS V14.01,2013-02-23 10:25:00,
2013-02-23 05:30:00,32.4,21.9,29.65,East,85,0.0,0.0,65,0.00,,---,0.00,VWS V14.01,2013-02-23 10:30:00,
2013-02-23 05:35:00,32.5,22.5,29.65,East,90,0.0,0.0,66,0.00,,---,0.00,VWS V14.01,2013-02-23 10:35:00,
2013-02-23 05:40:00,32.5,22.5,29.62,East,101,0.0,0.0,66,0.00,,---,0.00,VWS V14.01,2013-02-23 10:40:00,
2013-02-23 05:45:00,32.5,22.5,29.62,East,88,0.0,0.0,66,0.00,,---,0.00,VWS V14.01,2013-02-23 10:45:00,
2013-02-23 05:50:00,32.5,22.5,29.62,East,88,0.0,0.0,66,0.00,,---,0.00,VWS V14.01,2013-02-23 10:50:00,
2013-02-23 05:55:00,32.5,22.8,29.62,ESE,111,0.0,0.0,67,0.00,,---,0.00,VWS V14.01,2013-02-23 10:55:00,
2013-02-23 06:00:00,32.5,22.8,29.62,ESE,111,0.0,0.0,67,0.00,,---,0.00,VWS V14.01,2013-02-23 11:00:00,
2013-02-23 06:05:00,32.5,22.8,29.62,ESE,108,4.5,4.5,67,0.00,,---,0.00,VWS V14.01,2013-02-23 11:05:00,
2013-02-23 06:10:00,32.5,22.8,29.62,East,91,0.0,0.0,67,0.00,,---,0.00,VWS V14.01,2013-02-23 11:10:00,
2013-02-23 06:15:00,32.5,23.2,29.62,East,100,0.0,0.0,68,0.00,,---,0.00,VWS V14.01,2013-02-23 11:15:00,
2013-02-23 06:20:00,32.5,23.2,29.62,East,100,0.0,0.0,68,0.00,,---,0.00,VWS V14.01,2013-02-23 11:20:00,
2013-02-23 06:25:00,32.7,23.3,29.62,East,100,0.0,0.0,68,0.00,,---,0.00,VWS V14.01,2013-02-23 11:25:00,
2013-02-23 06:30:00,32.7,23.3,29.62,East,100,0.0,0.0,68,0.00,,---,0.00,VWS V14.01,2013-02-23 11:30:00,
2013-02-23 06:35:00,32.7,23.7,29.62,SSE,154,0.0,0.0,69,0.00,,---,0.00,VWS V14.01,2013-02-23 11:35:00,
2013-02-23 06:40:00,32.7,23.7,29.62,SSE,154,0.0,0.0,69,0.00,,---,0.00,VWS V14.01,2013-02-23 11:40:00,
2013-02-23 06:45:00,32.9,23.9,29.62,East,91,0.0,0.0,69,0.00,,---,0.00,VWS V14.01,2013-02-23 11:45:00,
2013-02-23 06:50:00,32.9,24.2,29.62,East,90,0.0,0.0,70,0.00,,---,0.00,VWS V14.01,2013-02-23 11:50:00,
2013-02-23 06:55:00,32.9,24.2,29.62,East,90,0.0,0.0,70,0.00,,---,0.00,VWS V14.01,2013-02-23 11:55:00,
2013-02-23 07:00:00,32.9,24.2,29.62,East,90,0.0,0.0,70,0.00,,---,0.00,VWS V14.01,2013-02-23 12:00:00,
2013-02-23 07:05:00,32.9,24.2,29.62,East,90,0.0,0.0,70,0.00,,---,0.00,VWS V14.01,2013-02-23 12:05:00,
2013-02-23 07:10:00,33.1,24.7,29.62,ENE,61,0.0,0.0,71,0.00,,---,0.00,VWS V14.01,2013-02-23 12:10:00,
2013-02-23 07:15:00,33.3,24.9,29.62,East,86,0.0,0.0,71,0.00,,---,0.00,VWS V14.01,2013-02-23 12:15:00,
2013-02-23 07:20:00,33.4,25.1,29.62,East,99,0.0,0.0,71,0.00,,---,0.00,VWS V14.01,2013-02-23 12:20:00,
2013-02-23 07:25:00,33.4,25.1,29.62,East,99,0.0,0.0,71,0.00,,---,0.00,VWS V14.01,2013-02-23 12:25:00,
2013-02-23 07:30:00,33.6,25.2,29.62,ESE,104,0.0,0.0,71,0.00,,---,0.00,VWS V14.01,2013-02-23 12:30:00,
2013-02-23 07:35:00,33.6,25.2,29.62,ESE,117,0.0,0.0,71,0.00,,---,0.00,VWS V14.01,2013-02-23 12:35:00,
2013-02-23 07:40:00,33.6,25.2,29.62,ESE,117,0.0,0.0,71,0.00,,---,0.00,VWS V14.01,2013-02-23 12:40:00,
2013-02-23 07:45:00,33.6,25.2,29.62,ESE,117,0.0,0.0,71,0.00,,---,0.00,VWS V14.01,2013-02-23 12:45:00,
2013-02-23 07:50:00,33.8,25.4,29.62,SE,127,0.0,0.0,71,0.00,,---,0.00,VWS V14.01,2013-02-23 12:50:00,
2013-02-23 07:55:00,33.8,25.4,29.62,SE,130,0.0,0.0,71,0.00,,---,0.00,VWS V14.01,2013-02-23 12:55:00,
2013-02-23 08:00:00,34.0,25.6,29.62,SE,131,0.0,0.0,71,0.00,,---,0.00,VWS V14.01,2013-02-23 13:00:00,
2013-02-23 08:05:00,34.0,25.6,29.62,SE,131,0.0,0.0,71,0.00,,---,0.00,VWS V14.01,2013-02-23 13:05:00,
2013-02-23 08:10:00,34.0,25.6,29.62,East,81,0.0,0.0,71,0.00,,---,0.00,VWS V14.01,2013-02-23 13:10:00,
2013-02-23 08:15:00,34.2,25.8,29.62,East,81,0.0,0.0,71,0.00,,---,0.00,VWS V14.01,2013-02-23 13:15:00,
2013-02-23 08:20:00,34.3,25.9,29.62,ENE,77,0.0,0.0,71,0.00,,---,0.00,VWS V14.01,2013-02-23 13:20:00,
2013-02-23 08:25:00,34.5,26.1,29.59,ESE,111,0.0,0.0,71,0.00,,---,0.00,VWS V14.01,2013-02-23 13:25:00,
2013-02-23 08:30:00,34.7,26.3,29.59,ESE,111,0.0,0.0,71,0.00,,---,0.00,VWS V14.01,2013-02-23 13:30:00,
2013-02-23 08:35:00,34.9,26.5,29.59,ESE,112,0.0,0.0,71,0.00,,---,0.00,VWS V14.01,2013-02-23 13:35:00,
2013-02-23 08:40:00,35.1,26.6,29.59,ESE,113,6.3,6.3,71,0.00,,---,0.00,VWS V14.01,2013-02-23 13:40:00,
2013-02-23 08:45:00,35.1,26.6,29.59,South,180,5.4,5.4,71,0.00,,---,0.00,VWS V14.01,2013-02-23 13:45:00,
2013-02-23 08:50:00,35.2,26.8,29.59,SSE,151,0.0,0.0,71,0.00,,---,0.00,VWS V14.01,2013-02-23 13:50:00,
2013-02-23 08:55:00,35.4,27.0,29.59,SE,131,0.0,0.0,71,0.00,,---,0.00,VWS V14.01,2013-02-23 13:55:00,
2013-02-23 09:00:00,35.4,27.0,29.59,ESE,119,5.4,5.4,71,0.00,,---,0.00,VWS V14.01,2013-02-23 14:00:00,
2013-02-23 09:05:00,35.6,27.1,29.59,East,98,0.0,0.0,71,0.00,,---,0.00,VWS V14.01,2013-02-23 14:05:00,
2013-02-23 09:10:00,35.6,27.1,29.59,SSE,166,6.3,6.3,71,0.00,,---,0.00,VWS V14.01,2013-02-23 14:10:00,
2013-02-23 09:15:00,35.6,27.1,29.59,SSE,149,0.0,0.0,71,0.00,,---,0.00,VWS V14.01,2013-02-23 14:15:00,
2013-02-23 09:20:00,35.8,27.6,29.59,SSE,153,8.1,8.1,72,0.00,,---,0.00,VWS V14.01,2013-02-23 14:20:00,
2013-02-23 09:25:00,35.8,27.6,29.59,SE,142,0.0,0.0,72,0.00,,---,0.00,VWS V14.01,2013-02-23 14:25:00,
2013-02-23 09:30:00,36.0,28.2,29.59,SE,144,0.0,0.0,73,0.00,,---,0.00,VWS V14.01,2013-02-23 14:30:00,
2013-02-23 09:35:00,36.1,28.3,29.59,SE,144,0.0,0.0,73,0.00,,---,0.00,VWS V14.01,2013-02-23 14:35:00,
2013-02-23 09:40:00,36.1,28.3,29.59,ESE,112,0.0,0.0,73,0.00,,---,0.00,VWS V14.01,2013-02-23 14:40:00,
2013-02-23 09:45:00,36.1,28.0,29.59,SSE,166,8.1,8.1,72,0.00,,---,0.00,VWS V14.01,2013-02-23 14:45:00,
2013-02-23 09:50:00,36.3,27.8,29.59,ESE,114,0.0,0.0,71,0.00,,---,0.00,VWS V14.01,2013-02-23 14:50:00,
2013-02-23 09:55:00,36.3,27.8,29.59,SE,146,6.3,6.3,71,0.00,,---,0.00,VWS V14.01,2013-02-23 14:55:00,
2013-02-23 10:00:00,36.3,27.5,29.59,ENE,70,0.0,0.0,70,0.00,,---,0.00,VWS V14.01,2013-02-23 15:00:00,
2013-02-23 10:05:00,36.5,27.7,29.59,ESE,103,0.0,0.0,70,0.00,,---,0.00,VWS V14.01,2013-02-23 15:05:00,
2013-02-23 10:10:00,36.5,27.7,29.59,ENE,76,12.5,12.5,70,0.00,,---,0.00,VWS V14.01,2013-02-23 15:10:00,
2013-02-23 10:15:00,36.7,27.8,29.59,East,93,5.4,5.4,70,0.00,,---,0.00,VWS V14.01,2013-02-23 15:15:00,
2013-02-23 10:20:00,36.7,27.8,29.59,ESE,106,8.1,8.1,70,0.00,,---,0.00,VWS V14.01,2013-02-23 15:20:00,
2013-02-23 10:25:00,36.7,27.5,29.59,SE,142,7.2,7.2,69,0.00,,---,0.00,VWS V14.01,2013-02-23 15:25:00,
2013-02-23 10:30:00,36.7,27.5,29.59,ESE,103,0.0,0.0,69,0.00,,---,0.00,VWS V14.01,2013-02-23 15:30:00,
2013-02-23 10:35:00,36.7,27.5,29.59,ESE,111,7.2,7.2,69,0.00,,---,0.00,VWS V14.01,2013-02-23 15:35:00,
2013-02-23 10:40:00,36.9,26.6,29.59,SE,131,0.0,0.0,66,0.00,,---,0.00,VWS V14.01,2013-02-23 15:40:00,
2013-02-23 10:45:00,36.9,26.6,29.56,SE,144,10.7,10.7,66,0.00,,---,0.00,VWS V14.01,2013-02-23 15:45:00,
2013-02-23 10:50:00,36.9,26.6,29.56,SE,144,10.7,10.7,66,0.00,,---,0.00,VWS V14.01,2013-02-23 15:50:00,
2013-02-23 10:55:00,37.0,26.8,29.56,ESE,117,0.0,0.0,66,0.00,,---,0.00,VWS V14.01,2013-02-23 15:55:00,
2013-02-23 11:00:00,37.0,26.8,29.56,South,177,6.3,6.3,66,0.00,,---,0.00,VWS V14.01,2013-02-23 16:00:00,
2013-02-23 11:05:00,37.0,26.0,29.56,SE,139,6.3,6.3,64,0.00,,---,0.00,VWS V14.01,2013-02-23 16:05:00,
2013-02-23 11:10:00,37.2,26.2,29.56,SSE,162,9.8,11.6,64,0.00,,---,0.00,VWS V14.01,2013-02-23 16:10:00,
2013-02-23 11:15:00,37.2,26.2,29.53,SSE,151,5.4,8.1,64,0.00,,---,0.00,VWS V14.01,2013-02-23 16:15:00,
2013-02-23 11:20:00,37.2,26.2,29.53,South,172,11.6,11.6,64,0.00,,---,0.00,VWS V14.01,2013-02-23 16:20:00,
2013-02-23 11:25:00,37.4,26.0,29.53,SSE,163,9.8,9.8,63,0.00,,---,0.00,VWS V14.01,2013-02-23 16:25:00,
2013-02-23 11:30:00,37.4,26.0,29.53,East,97,7.2,7.2,63,0.00,,---,0.00,VWS V14.01,2013-02-23 16:30:00,
2013-02-23 11:35:00,37.4,26.0,29.53,SSE,168,7.2,7.2,63,0.00,,---,0.00,VWS V14.01,2013-02-23 16:35:00,
2013-02-23 11:40:00,37.4,26.0,29.53,SSE,147,7.2,7.2,63,0.00,,---,0.00,VWS V14.01,2013-02-23 16:40:00,
2013-02-23 11:45:00,37.6,26.1,29.53,SE,130,5.4,5.4,63,0.00,,---,0.00,VWS V14.01,2013-02-23 16:45:00,
2013-02-23 11:50:00,37.9,26.5,29.53,SSE,151,8.1,8.1,63,0.00,,---,0.00,VWS V14.01,2013-02-23 16:50:00,
2013-02-23 11:55:00,37.8,25.9,29.53,SE,132,8.1,8.1,62,0.00,,---,0.00,VWS V14.01,2013-02-23 16:55:00,
2013-02-23 12:00:00,37.9,26.1,29.53,East,95,7.2,7.2,62,0.00,,---,0.00,VWS V14.01,2013-02-23 17:00:00,
2013-02-23 12:05:00,37.9,26.1,29.53,East,95,7.2,7.2,62,0.00,,---,0.00,VWS V14.01,2013-02-23 17:05:00,
2013-02-23 12:10:00,37.9,25.7,29.53,SSE,151,15.2,15.2,61,0.00,,---,0.00,VWS V14.01,2013-02-23 17:10:00,
2013-02-23 12:15:00,37.9,25.7,29.53,SE,131,7.2,7.2,61,0.00,,---,0.00,VWS V14.01,2013-02-23 17:15:00,
2013-02-23 12:20:00,37.8,25.9,29.53,East,88,8.1,8.1,62,0.00,,---,0.00,VWS V14.01,2013-02-23 17:20:00,
2013-02-23 12:25:00,37.6,26.1,29.53,South,171,8.1,8.1,63,0.00,,---,0.00,VWS V14.01,2013-02-23 17:25:00,
2013-02-23 12:30:00,37.4,26.4,29.53,ESE,106,7.2,8.1,64,0.00,,---,0.00,VWS V14.01,2013-02-23 17:30:00,
2013-02-23 12:35:00,37.2,26.2,29.53,ESE,102,9.8,9.8,64,0.00,,---,0.00,VWS V14.01,2013-02-23 17:35:00,
2013-02-23 12:40:00,37.4,26.0,29.50,SE,136,8.1,8.1,63,0.00,,---,0.00,VWS V14.01,2013-02-23 17:40:00,
2013-02-23 12:45:00,37.6,25.8,29.50,SE,140,9.8,9.8,62,0.00,,---,0.00,VWS V14.01,2013-02-23 17:45:00,
2013-02-23 12:50:00,37.6,25.8,29.50,NNE,30,6.3,6.3,62,0.00,,---,0.00,VWS V14.01,2013-02-23 17:50:00,
2013-02-23 12:55:00,37.6,25.8,29.50,East,88,5.4,5.4,62,0.00,,---,0.00,VWS V14.01,2013-02-23 17:55:00,
2013-02-23 13:00:00,37.8,25.1,29.50,SSE,156,6.3,6.3,60,0.00,,---,0.00,VWS V14.01,2013-02-23 18:00:00,
2013-02-23 13:05:00,37.8,25.1,29.50,SSW,194,7.2,7.2,60,0.00,,---,0.00,VWS V14.01,2013-02-23 18:05:00,
2013-02-23 13:10:00,37.9,25.3,29.50,ESE,110,8.1,8.1,60,0.00,,---,0.00,VWS V14.01,2013-02-23 18:10:00,
2013-02-23 13:15:00,38.1,25.5,29.50,ESE,113,0.0,0.0,60,0.00,,---,0.00,VWS V14.01,2013-02-23 18:15:00,
2013-02-23 13:20:00,38.1,25.5,29.50,ESE,121,5.4,5.4,60,0.00,,---,0.00,VWS V14.01,2013-02-23 18:20:00,
2013-02-23 13:25:00,38.1,25.5,29.50,ESE,121,5.4,5.4,60,0.00,,---,0.00,VWS V14.01,2013-02-23 18:25:00,
2013-02-23 13:30:00,37.9,25.3,29.50,ENE,71,8.1,8.1,60,0.00,,---,0.00,VWS V14.01,2013-02-23 18:30:00,
2013-02-23 13:35:00,37.9,25.3,29.50,East,84,4.5,7.2,60,0.00,,---,0.00,VWS V14.01,2013-02-23 18:35:00,
2013-02-23 13:40:00,37.9,25.3,29.47,SSE,150,0.0,0.0,60,0.00,,---,0.00,VWS V14.01,2013-02-23 18:40:00,
2013-02-23 13:45:00,37.9,25.7,29.47,South,173,8.9,8.9,61,0.00,,---,0.00,VWS V14.01,2013-02-23 18:45:00,
2013-02-23 13:50:00,37.8,25.5,29.47,South,184,8.1,8.1,61,0.00,,---,0.00,VWS V14.01,2013-02-23 18:50:00,
2013-02-23 13:55:00,37.8,25.5,29.47,ESE,105,4.5,4.5,61,0.00,,---,0.00,VWS V14.01,2013-02-23 18:55:00,
2013-02-23 14:00:00,37.8,25.5,29.47,South,170,5.4,5.4,61,0.00,,---,0.00,VWS V14.01,2013-02-23 19:00:00,
2013-02-23 14:05:00,37.8,25.5,29.47,South,172,7.2,7.2,61,0.00,,---,0.00,VWS V14.01,2013-02-23 19:05:00,
2013-02-23 14:10:00,37.6,25.8,29.47,ESE,120,7.2,7.2,62,0.00,,---,0.00,VWS V14.01,2013-02-23 19:10:00,
2013-02-23 14:15:00,37.6,25.8,29.47,South,172,5.4,5.4,62,0.00,,---,0.00,VWS V14.01,2013-02-23 19:15:00,
2013-02-23 14:20:00,37.4,25.6,29.47,SE,145,7.2,11.6,62,0.00,,---,0.00,VWS V14.01,2013-02-23 19:20:00,
2013-02-23 14:25:00,37.4,26.0,29.47,SSE,164,6.3,6.3,63,0.00,,---,0.00,VWS V14.01,2013-02-23 19:25:00,
2013-02-23 14:30:00,37.4,26.0,29.47,NE,46,6.3,7.2,63,0.00,,---,0.00,VWS V14.01,2013-02-23 19:30:00,
2013-02-23 14:35:00,37.4,26.4,29.47,SSE,165,9.8,9.8,64,0.00,,---,0.00,VWS V14.01,2013-02-23 19:35:00,
2013-02-23 14:40:00,37.2,26.2,29.47,SE,138,7.2,7.2,64,0.00,,---,0.00,VWS V14.01,2013-02-23 19:40:00,
2013-02-23 14:45:00,37.2,26.2,29.47,East,85,7.2,7.2,64,0.00,,---,0.00,VWS V14.01,2013-02-23 19:45:00,
2013-02-23 14:50:00,37.0,26.4,29.47,East,81,8.1,8.1,65,0.00,,---,0.00,VWS V14.01,2013-02-23 19:50:00,
2013-02-23 14:55:00,37.0,26.4,29.47,East,88,0.0,6.3,65,0.00,,---,0.00,VWS V14.01,2013-02-23 19:55:00,
2013-02-23 15:00:00,36.9,27.7,29.47,East,98,5.4,5.4,69,0.00,,---,0.00,VWS V14.01,2013-02-23 20:00:00,
2013-02-23 15:05:00,36.9,28.0,29.47,ESE,104,15.2,15.2,70,0.00,,---,0.00,VWS V14.01,2013-02-23 20:05:00,
2013-02-23 15:10:00,36.9,28.0,29.44,East,99,5.4,5.4,70,0.00,,---,0.00,VWS V14.01,2013-02-23 20:10:00,
2013-02-23 15:15:00,36.9,28.0,29.44,East,88,14.3,14.3,70,0.00,,---,0.00,VWS V14.01,2013-02-23 20:15:00,
2013-02-23 15:20:00,36.7,28.2,29.44,SE,136,5.4,5.4,71,0.00,,---,0.00,VWS V14.01,2013-02-23 20:20:00,
2013-02-23 15:25:00,36.7,28.2,29.44,SE,135,6.3,10.7,71,0.00,,---,0.00,VWS V14.01,2013-02-23 20:25:00,
2013-02-23 15:30:00,36.3,28.2,29.44,East,87,10.7,10.7,72,0.00,,---,0.00,VWS V14.01,2013-02-23 20:30:00,
2013-02-23 15:35:00,36.3,28.5,29.44,SSE,157,7.2,7.2,73,0.00,,---,0.00,VWS V14.01,2013-02-23 20:35:00,
2013-02-23 15:40:00,36.3,28.5,29.44,ENE,73,5.4,5.4,73,0.00,,---,0.00,VWS V14.01,2013-02-23 20:40:00,
2013-02-23 15:45:00,36.1,28.3,29.44,East,82,7.2,7.2,73,0.00,,---,0.00,VWS V14.01,2013-02-23 20:45:00,
2013-02-23 15:50:00,36.1,28.3,29.44,East,85,5.4,5.4,73,0.00,,---,0.00,VWS V14.01,2013-02-23 20:50:00,
2013-02-23 15:55:00,36.0,28.2,29.44,East,86,12.5,12.5,73,0.00,,---,0.00,VWS V14.01,2013-02-23 20:55:00,
2013-02-23 16:00:00,36.0,28.2,29.44,ESE,113,0.0,0.0,73,0.00,,---,0.00,VWS V14.01,2013-02-23 21:00:00,
2013-02-23 16:05:00,36.0,28.2,29.44,SE,143,7.2,7.2,73,0.00,,---,0.00,VWS V14.01,2013-02-23 21:05:00,
2013-02-23 16:10:00,35.4,28.0,29.44,ESE,102,4.5,8.1,74,0.00,,---,0.00,VWS V14.01,2013-02-23 21:10:00,
2013-02-23 16:15:00,35.4,28.3,29.44,ENE,70,5.4,6.3,75,0.00,,---,0.00,VWS V14.01,2013-02-23 21:15:00,
2013-02-23 16:20:00,35.2,28.5,29.44,SE,125,5.4,8.1,76,0.00,,---,0.00,VWS V14.01,2013-02-23 21:20:00,
2013-02-23 16:25:00,35.2,28.5,29.44,SE,128,12.5,12.5,76,0.00,,---,0.00,VWS V14.01,2013-02-23 21:25:00,
2013-02-23 16:30:00,35.1,28.6,29.44,East,96,11.6,11.6,77,0.00,,---,0.00,VWS V14.01,2013-02-23 21:30:00,
2013-02-23 16:35:00,35.1,28.6,29.44,ESE,111,0.0,0.0,77,0.00,,---,0.00,VWS V14.01,2013-02-23 21:35:00,
2013-02-23 16:40:00,35.1,29.2,29.44,ESE,109,7.2,7.2,79,0.00,,---,0.00,VWS V14.01,2013-02-23 21:40:00,
2013-02-23 16:44:00,35.1,29.5,29.41,ENE,77,7.2,7.2,80,0.00,,---,0.00,VWS V14.01,2013-02-23 21:44:00,
2013-02-23 16:49:00,35.1,29.8,29.41,ESE,110,10.7,10.7,81,0.00,,---,0.00,VWS V14.01,2013-02-23 21:49:00,
2013-02-23 16:54:00,35.1,30.1,29.41,ESE,112,7.2,7.2,82,0.00,,---,0.00,VWS V14.01,2013-02-23 21:54:00,
2013-02-23 16:59:00,34.9,30.0,29.41,ESE,118,10.7,10.7,82,0.00,,---,0.00,VWS V14.01,2013-02-23 21:59:00,
2013-02-23 17:04:00,34.9,30.0,29.41,East,89,4.5,7.2,82,0.00,,---,0.00,VWS V14.01,2013-02-23 22:04:00,
2013-02-23 17:09:00,34.7,29.5,29.41,East,82,7.2,11.6,81,0.00,,---,0.00,VWS V14.01,2013-02-23 22:09:00,
2013-02-23 17:14:00,34.7,29.8,29.41,ESE,104,5.4,6.3,82,0.00,,---,0.00,VWS V14.01,2013-02-23 22:14:00,
2013-02-23 17:19:00,34.7,29.8,29.41,NE,56,8.1,8.1,82,0.00,,---,0.00,VWS V14.01,2013-02-23 22:19:00,
2013-02-23 17:24:00,34.5,29.3,29.41,ENE,75,8.1,8.1,81,0.00,,---,0.00,VWS V14.01,2013-02-23 22:24:00,
2013-02-23 17:29:00,34.5,29.3,29.41,ENE,73,5.4,8.1,81,0.00,,---,0.00,VWS V14.01,2013-02-23 22:29:00,
2013-02-23 17:34:00,34.5,29.6,29.41,ENE,73,0.0,0.0,82,0.00,,---,0.00,VWS V14.01,2013-02-23 22:34:00,
2013-02-23 17:39:00,34.3,29.7,29.41,East,100,8.1,11.6,83,0.00,,---,0.00,VWS V14.01,2013-02-23 22:39:00,
2013-02-23 17:44:00,34.3,30.0,29.41,ENE,57,7.2,7.2,84,0.00,,---,0.00,VWS V14.01,2013-02-23 22:44:00,
2013-02-23 17:49:00,34.3,30.9,29.41,East,84,18.3,18.3,87,0.00,,---,0.00,VWS V14.01,2013-02-23 22:49:00,
2013-02-23 17:54:00,34.2,31.0,29.41,East,83,10.7,10.7,88,0.00,,---,0.00,VWS V14.01,2013-02-23 22:54:00,
2013-02-23 17:59:00,34.2,31.5,29.41,ENE,75,7.2,7.2,90,0.00,,---,0.00,VWS V14.01,2013-02-23 22:59:00,
2013-02-23 18:04:00,34.0,31.9,29.41,East,84,7.2,11.6,92,0.00,,---,0.00,VWS V14.01,2013-02-23 23:04:00,
2013-02-23 18:09:00,34.0,32.2,29.41,East,85,5.4,5.4,93,0.04,,---,0.04,VWS V14.01,2013-02-23 23:09:00,
2013-02-23 18:14:00,34.0,32.4,29.38,ESE,105,7.2,11.6,94,0.04,,---,0.04,VWS V14.01,2013-02-23 23:14:00,
2013-02-23 18:19:00,34.0,33.0,29.38,ESE,112,6.3,6.3,96,0.04,,---,0.04,VWS V14.01,2013-02-23 23:19:00,
2013-02-23 18:24:00,34.0,33.0,29.38,East,91,0.0,10.7,96,0.04,,---,0.04,VWS V14.01,2013-02-23 23:24:00,
2013-02-23 18:29:00,34.0,33.2,29.38,East,79,0.0,6.3,97,0.04,,---,0.04,VWS V14.01,2013-02-23 23:29:00,
2013-02-23 18:34:00,34.0,33.5,29.38,ENE,65,5.4,6.3,98,0.04,,---,0.04,VWS V14.01,2013-02-23 23:34:00,
2013-02-23 18:39:00,34.0,33.5,29.38,East,84,0.0,6.3,98,0.04,,---,0.04,VWS V14.01,2013-02-23 23:39:00,
2013-02-23 18:44:00,34.0,33.5,29.38,East,80,8.1,12.5,98,0.08,,---,0.08,VWS V14.01,2013-02-23 23:44:00,
2013-02-23 18:49:00,33.8,33.5,29.38,ESE,106,7.2,10.7,99,0.08,,---,0.08,VWS V14.01,2013-02-23 23:49:00,
2013-02-23 18:54:00,34.0,33.7,29.38,ENE,71,8.1,8.1,99,0.08,,---,0.08,VWS V14.01,2013-02-23 23:54:00,
2013-02-23 18:59:00,33.8,33.5,29.38,ENE,77,17.4,17.4,99,0.08,,---,0.08,VWS V14.01,2013-02-23 23:59:00,
2013-02-23 19:04:00,34.0,34.0,29.38,East,99,10.7,10.7,100,0.08,,---,0.08,VWS V14.01,2013-02-24 00:04:00,
2013-02-23 19:09:00,34.0,34.0,29.38,East,87,8.1,12.5,100,0.04,,---,0.08,VWS V14.01,2013-02-24 00:09:00,
2013-02-23 19:14:00,34.0,34.0,29.35,East,79,11.6,11.6,100,0.04,,---,0.08,VWS V14.01,2013-02-24 00:14:00,
2013-02-23 19:19:00,34.0,34.0,29.35,ESE,108,7.2,7.2,100,0.04,,---,0.08,VWS V14.01,2013-02-24 00:19:00,
2013-02-23 19:24:00,34.0,34.0,29.35,ESE,111,7.2,7.2,100,0.04,,---,0.08,VWS V14.01,2013-02-24 00:24:00,
2013-02-23 19:29:00,34.0,34.0,29.35,East,97,12.5,12.5,100,0.04,,---,0.08,VWS V14.01,2013-02-24 00:29:00,
2013-02-23 19:34:00,34.0,34.0,29.35,East,99,8.1,9.8,100,0.04,,---,0.08,VWS V14.01,2013-02-24 00:34:00,
2013-02-23 19:39:00,34.0,34.0,29.35,ENE,76,0.0,0.0,100,0.04,,---,0.08,VWS V14.01,2013-02-24 00:39:00,
2013-02-23 19:44:00,34.0,34.0,29.35,East,92,0.0,6.3,100,0.00,,---,0.08,VWS V14.01,2013-02-24 00:44:00,
2013-02-23 19:49:00,34.2,34.2,29.35,NE,54,0.0,0.0,100,0.00,,---,0.08,VWS V14.01,2013-02-24 00:49:00,
2013-02-23 19:54:00,34.2,34.2,29.35,ENE,58,6.3,8.1,100,0.00,,---,0.08,VWS V14.01,2013-02-24 00:54:00,
2013-02-23 19:59:00,34.2,34.2,29.35,ENE,62,8.1,8.1,100,0.04,,---,0.12,VWS V14.01,2013-02-24 00:59:00,
2013-02-23 20:04:00,34.2,34.2,29.35,East,80,9.8,10.7,100,0.04,,---,0.12,VWS V14.01,2013-02-24 01:04:00,
2013-02-23 20:09:00,34.2,34.2,29.35,East,81,7.2,10.7,100,0.04,,---,0.12,VWS V14.01,2013-02-24 01:09:00,
2013-02-23 20:14:00,34.2,34.2,29.35,NE,39,16.1,16.1,100,0.04,,---,0.12,VWS V14.01,2013-02-24 01:14:00,
2013-02-23 20:19:00,34.3,34.3,29.35,East,82,10.7,10.7,100,0.04,,---,0.12,VWS V14.01,2013-02-24 01:19:00,
2013-02-23 20:24:00,34.3,34.3,29.35,East,92,4.5,5.4,100,0.04,,---,0.12,VWS V14.01,2013-02-24 01:24:00,
2013-02-23 20:29:00,34.3,34.3,29.35,NNE,18,0.0,0.0,100,0.12,,---,0.20,VWS V14.01,2013-02-24 01:29:00,
2013-02-23 20:34:00,34.3,34.3,29.35,NE,54,5.4,5.4,100,0.12,,---,0.20,VWS V14.01,2013-02-24 01:34:00,
2013-02-23 20:39:00,34.3,34.3,29.35,ENE,60,5.4,5.4,100,0.12,,---,0.20,VWS V14.01,2013-02-24 01:39:00,
2013-02-23 20:44:00,34.3,34.3,29.35,NE,37,0.0,0.0,100,0.12,,---,0.20,VWS V14.01,2013-02-24 01:44:00,
2013-02-23 20:49:00,34.3,34.3,29.35,NNE,16,5.4,10.7,100,0.12,,---,0.20,VWS V14.01,2013-02-24 01:49:00,
2013-02-23 20:54:00,34.3,34.3,29.35,NNE,23,5.4,7.2,100,0.12,,---,0.20,VWS V14.01,2013-02-24 01:54:00,
2013-02-23 20:59:00,34.3,34.3,29.35,NE,55,0.0,7.2,100,0.12,,---,0.20,VWS V14.01,2013-02-24 01:59:00,
2013-02-23 21:04:00,34.3,34.3,29.32,ENE,60,4.5,6.3,100,0.08,,---,0.20,VWS V14.01,2013-02-24 02:04:00,
2013-02-23 21:09:00,34.3,34.3,29.32,NE,55,5.4,7.2,100,0.08,,---,0.20,VWS V14.01,2013-02-24 02:09:00,
2013-02-23 21:14:00,34.3,34.3,29.32,East,80,8.1,10.7,100,0.08,,---,0.20,VWS V14.01,2013-02-24 02:14:00,
2013-02-23 21:19:00,34.3,34.3,29.32,ENE,75,10.7,10.7,100,0.08,,---,0.20,VWS V14.01,2013-02-24 02:19:00,
2013-02-23 21:24:00,34.3,34.3,29.29,NE,54,0.0,0.0,100,0.08,,---,0.20,VWS V14.01,2013-02-24 02:24:00,
2013-02-23 21:29:00,34.3,34.3,29.29,NE,54,5.4,5.4,100,0.00,,---,0.20,VWS V14.01,2013-02-24 02:29:00,
2013-02-23 21:34:00,34.5,34.5,29.29,NNE,16,5.4,5.4,100,0.00,,---,0.20,VWS V14.01,2013-02-24 02:34:00,
2013-02-23 21:39:00,34.5,34.5,29.29,ENE,65,5.4,5.4,100,0.00,,---,0.20,VWS V14.01,2013-02-24 02:39:00,
2013-02-23 21:44:00,34.5,34.5,29.29,NE,46,5.4,6.3,100,0.00,,---,0.20,VWS V14.01,2013-02-24 02:44:00,
2013-02-23 21:49:00,34.5,34.5,29.29,NE,53,6.3,6.3,100,0.00,,---,0.20,VWS V14.01,2013-02-24 02:49:00,
2013-02-23 21:54:00,34.7,34.7,29.26,ENE,72,10.7,11.6,100,0.00,,---,0.20,VWS V14.01,2013-02-24 02:54:00,
2013-02-23 21:59:00,34.7,34.7,29.26,ESE,123,6.3,6.3,100,0.00,,---,0.20,VWS V14.01,2013-02-24 02:59:00,
2013-02-23 22:04:00,34.7,34.7,29.26,NE,43,9.8,9.8,100,0.00,,---,0.20,VWS V14.01,2013-02-24 03:04:00,
2013-02-23 22:09:00,34.9,34.9,29.26,NNE,15,0.0,8.1,100,0.00,,---,0.20,VWS V14.01,2013-02-24 03:09:00,
2013-02-23 22:14:00,34.9,34.9,29.26,NE,49,6.3,6.3,100,0.00,,---,0.20,VWS V14.01,2013-02-24 03:14:00,
2013-02-23 22:19:00,34.9,34.9,29.26,ENE,78,5.4,8.1,100,0.00,,---,0.20,VWS V14.01,2013-02-24 03:19:00,
2013-02-23 22:24:00,34.9,34.9,29.23,NE,41,10.7,10.7,100,0.00,,---,0.20,VWS V14.01,2013-02-24 03:24:00,
2013-02-23 22:29:00,34.9,34.9,29.23,East,85,5.4,7.2,100,0.00,,---,0.20,VWS V14.01,2013-02-24 03:29:00,
2013-02-23 22:34:00,34.9,34.9,29.23,North,7,16.1,16.1,100,0.00,,---,0.20,VWS V14.01,2013-02-24 03:34:00,
2013-02-23 22:39:00,34.9,34.9,29.23,NE,45,9.8,11.6,100,0.00,,---,0.20,VWS V14.01,2013-02-24 03:39:00,
2013-02-23 22:44:00,34.9,34.9,29.23,ENE,77,9.8,9.8,100,0.00,,---,0.20,VWS V14.01,2013-02-24 03:44:00,
2013-02-23 22:49:00,34.9,34.9,29.23,NE,38,4.5,4.5,100,0.00,,---,0.20,VWS V14.01,2013-02-24 03:49:00,
2013-02-23 22:54:00,35.1,35.1,29.23,NNE,29,4.5,7.2,100,0.00,,---,0.20,VWS V14.01,2013-02-24 03:54:00,
2013-02-23 22:59:00,35.1,35.1,29.23,NE,48,7.2,7.2,100,0.00,,---,0.20,VWS V14.01,2013-02-24 03:59:00,
2013-02-23 23:04:00,35.1,35.1,29.23,NE,56,6.3,6.3,100,0.00,,---,0.20,VWS V14.01,2013-02-24 04:04:00,
2013-02-23 23:09:00,35.2,35.2,29.21,East,79,7.2,7.2,100,0.00,,---,0.20,VWS V14.01,2013-02-24 04:09:00,
2013-02-23 23:14:00,35.4,35.4,29.21,NE,40,16.1,16.1,100,0.00,,---,0.20,VWS V14.01,2013-02-24 04:14:00,
2013-02-23 23:19:00,35.4,35.4,29.21,North,9,10.7,12.5,100,0.00,,---,0.20,VWS V14.01,2013-02-24 04:19:00,
2013-02-23 23:24:00,35.4,35.4,29.21,NNE,12,5.4,5.4,100,0.00,,---,0.20,VWS V14.01,2013-02-24 04:24:00,
2013-02-23 23:29:00,35.4,35.4,29.21,North,5,0.0,0.0,100,0.00,,---,0.20,VWS V14.01,2013-02-24 04:29:00,
2013-02-23 23:34:00,35.4,35.4,29.21,North,357,8.1,8.1,100,0.00,,---,0.20,VWS V14.01,2013-02-24 04:34:00,
2013-02-23 23:39:00,35.4,35.4,29.21,NE,46,6.3,10.7,100,0.00,,---,0.20,VWS V14.01,2013-02-24 04:39:00,
2013-02-23 23:44:00,35.4,35.4,29.21,NNE,22,8.1,8.1,100,0.00,,---,0.20,VWS V14.01,2013-02-24 04:44:00,
2013-02-23 23:49:00,35.6,35.6,29.21,North,9,11.6,11.6,100,0.00,,---,0.20,VWS V14.01,2013-02-24 04:49:00,
2013-02-23 23:54:00,35.6,35.6,29.21,ENE,59,6.3,6.3,100,0.00,,---,0.20,VWS V14.01,2013-02-24 04:54:00,
2013-02-23 23:59:00,35.6,35.6,29.21,NE,40,7.2,7.2,100,0.00,,---,0.20,VWS V14.01,2013-02-24 04:59:00,